MST,Max TemperatureF,Mean TemperatureF,Min TemperatureF,Max Dew PointF,MeanDew PointF,Min DewpointF,Max Humidity, Mean Humidity, Min Humidity, Max Sea Level PressureIn, Mean Sea Level PressureIn, Min Sea Level PressureIn, Max VisibilityMiles, Mean VisibilityMiles, Min VisibilityMiles, Max Wind SpeedMPH, Mean Wind SpeedMPH, Max Gust SpeedMPH,PrecipitationIn, CloudCover, Events, WindDirDegrees
2013-11-1,53,39,25,37,26,20,85,58,31,30.25,30.07,29.83,10,10,10,37,18,46,0.00,1,Rain,315
2013-11-2,63,42,21,28,23,19,88,54,20,30.28,30.07,29.74,10,10,10,23,12,28,0.00,0,,206
2013-11-3,67,47,27,34,26,18,79,48,16,29.81,29.65,29.52,10,10,5,29,13,37,0.05,1,Snow,338
2013-11-4,44,36,28,31,27,22,96,70,43,30.13,29.99,29.83,10,9,1,35,11,39,0.03,3,Snow,354
2013-11-5,36,25,13,32,27,11,96,83,69,30.26,30.06,29.95,10,5,0,29,11,36,0.26,6,Fog-Rain-Snow,332
2013-11-6,48,33,17,29,22,11,85,64,42,30.41,30.30,30.22,10,10,10,24,11,28,0.00,1,,287
2013-11-7,58,41,24,35,27,21,88,59,30,30.47,30.29,29.97,10,10,10,25,12,31,0.00,1,,220
2013-11-8,67,49,30,34,28,25,78,50,22,30.03,29.87,29.75,10,10,10,39,14,49,0.00,1,,286
2013-11-9,58,44,30,32,29,24,89,60,30,30.31,30.19,30.03,10,10,10,15,7,17,0.00,2,,125
2013-11-10,68,50,31,34,30,27,89,56,22,30.28,30.20,30.11,10,10,10,21,9,29,0.00,0,,229
2013-11-11,45,36,27,29,25,21,100,79,57,30.78,30.46,30.09,10,7,0,16,10,20,T,7,Fog-Snow,12
2013-11-12,55,37,18,34,27,16,92,69,45,30.77,30.61,30.35,10,7,0,16,10,21,0.00,4,Fog,224
2013-11-13,72,49,26,32,27,22,85,51,16,30.33,30.12,29.90,10,10,9,16,8,18,0.00,0,,291
2013-11-14,56,45,33,38,32,27,85,60,35,30.09,29.94,29.78,10,10,10,30,11,38,0.00,0,,276
2013-11-15,64,49,33,34,28,20,89,54,19,29.74,29.56,29.39,10,10,10,25,11,31,0.00,1,,204
2013-11-16,53,42,30,29,25,22,75,52,29,29.47,29.39,29.32,10,10,10,23,10,30,T,3,,293
2013-11-17,48,35,22,23,11,5,55,36,17,30.15,29.85,29.46,10,10,10,41,23,51,0.00,0,,295
2013-11-18,59,39,18,23,19,13,77,50,23,30.21,30.12,30.02,10,10,10,16,9,18,0.00,0,,236
2013-11-19,64,43,21,30,23,17,81,50,19,29.98,29.80,29.69,10,10,10,20,9,23,0.00,0,,282
2013-11-20,63,42,21,30,27,18,85,55,25,30.12,29.85,29.69,10,9,5,33,13,39,0.00,4,,336
2013-11-21,26,17,8,15,8,4,84,79,73,30.79,30.37,30.15,10,3,0,30,18,36,0.01,8,Snow,356
2013-11-22,33,19,5,15,8,2,88,65,41,30.78,30.73,30.65,10,10,10,13,7,15,0.00,0,,283
2013-11-23,32,21,10,14,10,5,80,60,39,30.83,30.70,30.50,10,10,10,14,9,16,0.00,0,,209
2013-11-24,35,26,17,25,19,12,92,77,62,30.46,30.21,30.07,10,10,8,28,14,31,0.00,0,,200
2013-11-25,44,32,20,25,21,17,92,71,49,30.39,30.27,30.08,10,10,10,24,12,29,0.00,3,,333
2013-11-26,39,30,21,24,20,18,84,66,48,30.49,30.42,30.33,10,10,10,14,9,16,0.00,1,,300
2013-11-27,60,39,18,29,22,16,91,58,24,30.30,30.16,30.02,10,10,10,26,9,83,0.00,0,,292
2013-11-28,45,31,17,25,20,14,84,61,37,30.36,30.27,30.17,10,10,10,20,9,28,0.00,0,,175
2013-11-29,58,39,20,27,23,18,92,60,28,30.22,30.15,30.06,10,10,10,23,10,28,0.00,0,,286
2013-11-30,58,42,25,26,22,20,81,53,24,30.24,30.17,30.09,10,10,10,25,11,31,0.00,0,,306